TimePST,TemperatureF,Dew PointF,Humidity,Sea Level PressureIn,VisibilityMPH,Wind Direction,Wind SpeedMPH,Gust SpeedMPH,PrecipitationIn,Events,Conditions,WindDirDegrees,DateUTC
12:53 AM,32.0,21.9,66,30.36,10.0,North,4.6,-,N/A,,Clear,350,2012-12-09 08:53:00
1:53 AM,30.9,21.9,69,30.38,10.0,North,3.5,-,N/A,,Clear,350,2012-12-09 09:53:00
2:53 AM,30.9,21.9,69,30.39,10.0,North,4.6,-,N/A,,Clear,350,2012-12-09 10:53:00
3:53 AM,30.0,21.9,72,30.40,10.0,NNW,3.5,-,N/A,,Clear,330,2012-12-09 11:53:00
4:53 AM,30.0,21.9,72,30.40,10.0,Calm,Calm,-,N/A,,Clear,0,2012-12-09 12:53:00
5:53 AM,30.0,21.9,72,30.41,10.0,NE,3.5,-,N/A,,Clear,40,2012-12-09 13:53:00
6:53 AM,28.9,23.0,78,30.41,10.0,Calm,Calm,-,N/A,,Scattered Clouds,0,2012-12-09 14:53:00
7:53 AM,30.0,23.0,75,30.43,10.0,Calm,Calm,-,N/A,,Overcast,0,2012-12-09 15:53:00
8:53 AM,30.9,23.0,72,30.41,10.0,Calm,Calm,-,N/A,,Overcast,0,2012-12-09 16:53:00
9:53 AM,30.9,24.1,76,30.41,10.0,Calm,Calm,-,N/A,,Overcast,0,2012-12-09 17:53:00
10:26 AM,30.2,24.8,80,30.36,2.5,Calm,Calm,-,0.00,Snow,Light Snow,0,2012-12-09 18:26:00
10:34 AM,30.2,26.6,86,30.38,0.8,Calm,Calm,-,0.00,Snow,Light Snow,0,2012-12-09 18:34:00
10:50 AM,30.2,26.6,86,30.38,1.2,Calm,Calm,-,0.00,Snow,Light Snow,0,2012-12-09 18:50:00
10:53 AM,30.0,27.0,88,30.42,1.5,Calm,Calm,-,0.00,Snow,Light Snow,0,2012-12-09 18:53:00
10:59 AM,30.2,26.6,86,30.37,3.0,Calm,Calm,-,0.00,Snow,Light Snow,0,2012-12-09 18:59:00
11:07 AM,30.2,26.6,86,30.36,6.0,Calm,Calm,-,0.00,Snow,Light Snow,0,2012-12-09 19:07:00
11:41 AM,30.2,26.6,86,30.34,10.0,Calm,Calm,-,0.00,,Overcast,0,2012-12-09 19:41:00
11:48 AM,30.2,26.6,86,30.33,10.0,East,3.5,-,0.00,,Overcast,100,2012-12-09 19:48:00
11:53 AM,30.9,27.0,85,30.38,9.0,East,3.5,-,0.00,Snow,Light Snow,90,2012-12-09 19:53:00
12:33 PM,30.2,26.6,86,30.33,7.0,Calm,Calm,-,0.00,,Overcast,0,2012-12-09 20:33:00
12:53 PM,30.9,27.0,85,30.37,10.0,Calm,Calm,-,0.00,,Overcast,0,2012-12-09 20:53:00
1:23 PM,30.2,26.6,86,30.30,10.0,Calm,Calm,-,0.00,,Overcast,0,2012-12-09 21:23:00
1:53 PM,30.9,28.0,89,30.32,10.0,South,5.8,-,0.00,,Overcast,180,2012-12-09 21:53:00
2:05 PM,30.2,28.4,93,30.28,10.0,South,4.6,-,N/A,,Overcast,190,2012-12-09 22:05:00
2:53 PM,32.0,28.9,88,30.32,10.0,Calm,Calm,-,N/A,,Overcast,0,2012-12-09 22:53:00
3:53 PM,32.0,28.9,88,30.29,10.0,South,3.5,-,N/A,,Overcast,180,2012-12-09 23:53:00
4:53 PM,32.0,30.0,92,30.27,10.0,Calm,Calm,-,N/A,,Overcast,0,2012-12-10 00:53:00
5:53 PM,32.0,30.0,92,30.25,10.0,SW,5.8,-,N/A,,Overcast,230,2012-12-10 01:53:00
6:53 PM,32.0,28.9,88,30.25,10.0,WNW,4.6,-,N/A,,Overcast,300,2012-12-10 02:53:00
7:53 PM,30.9,28.0,89,30.23,10.0,NW,6.9,-,N/A,,Overcast,320,2012-12-10 03:53:00
8:11 PM,30.2,28.4,93,30.18,10.0,WNW,6.9,-,N/A,,Overcast,300,2012-12-10 04:11:00
8:53 PM,30.9,27.0,85,30.22,10.0,NNW,6.9,-,N/A,,Overcast,330,2012-12-10 04:53:00
9:36 PM,30.2,26.6,86,30.20,10.0,NNW,9.2,-,N/A,,Partly Cloudy,330,2012-12-10 05:36:00
9:53 PM,30.0,27.0,88,30.25,10.0,NNW,8.1,-,N/A,,Partly Cloudy,340,2012-12-10 05:53:00
10:53 PM,28.9,26.1,89,30.25,10.0,NNE,6.9,-,N/A,,Scattered Clouds,20,2012-12-10 06:53:00
11:04 PM,30.2,26.6,86,30.20,10.0,North,6.9,-,N/A,,Mostly Cloudy,360,2012-12-10 07:04:00
11:53 PM,30.9,28.0,89,30.27,10.0,Calm,Calm,-,N/A,,Overcast,0,2012-12-10 07:53:00